OBJECT B, 65564

Orbit data source: Space-Track

You're viewing an Uncataloged Satellite

Recently launched and/or uncataloged satellites may have evolving metadata. Metadata may include but not limited to: Owner, Maufacturer, Bus, Motor, and Mission.

OBJECT B, 65564 is a satellite owned by CASC (CN) that was launched on Mon, 08 Sep 2025 UTC launched from the Wenchang Satellite Launch Center (WSC). Unknown objects in Earth's orbit typically refer to objects detected orbiting the Earth but have not yet been identified or cataloged. These objects could be anything from previously untracked satellites, spent rocket stages, debris from satellite collisions, or even natural meteoroids temporarily captured by Earth's gravity.

Loading next visibility...
Identifier
65564, 2025-202B
Orbit
Active
Country
Flag of CNCN / PRC
Related business
None
Manufacturer
CALT
Mission
Spacecraft
Bus & Motor
CZ-3A STAGE 3, Unknown motor
Mass
~2,800 kg wet, ~2,800 kg dry
Launch date (UTC)
2025-09-08 (1 week ago)
Launch vehicle
Unknown
Launch site
Wenchang Satellite Launch Center (WSC)
Object type
Unknown
Shape & HBR
Unknown
Radar Cross Section
Large (>1 m²)

Expand to show TLE details & history
Last TLE update: 6 days ago

TLE from 6 days ago
0 OBJECT B
1 65564U 25202B   25254.39572250  .01132414 -10468-5  24484-3 0  9994
2 65564  20.0832  29.7830 3522366 136.7802 257.0182  8.63078683   213
Epoch: 2025-09-11T09:29Z
TLE epoch observation values (Epoch: 2025-09-11T09:29:50.424Z)
Latitude
0.00001°
Longitude
-103.33547°
Altitude
5,447.89 km
Speed
5.265 km/s
True Right ascension
01h 59m 07s
True Declination
0° 00' 00"
Sunlit
Object was in daylight at epoch
Visualization orbit readout
Latitude
Unknown
Longitude
Unknown
Altitude
Unknown
Speed
Unknown
Apparent Right ascension
Unknown
Apparent Declination
Unknown
Sunlit
N/A
Visualization observer readout
Local Sidereal Time
12:36:27
Azimuth
Unknown
Elevation
Unknown
Doppler factor
Unknown
Orbital elements
Apogee altitude
7,203.281 km
Perigee altitude
127.785 km
Semi-major axis
10,043.67 km
Eccentricity
0.35224
Inclination
20.0832°
RAAN
29.783°
Arg. of periapsis
136.7802°
True anomaly
223.25247°
Mean anomaly
257.0182°
Eccentric anomaly
239.60953°
Mean motion
2.15628 °/min
Orbital period
166.95 mins
BSTAR
0.00024484
Loading maneuver chart data...
Computing Atmospheric mass density...
Loading historical data...
Loading historical data...
Loading historical data...
Loading historical data...
Loading historical data...
Loading historical data...
Loading historical data...
Other satellites on launch #202 in the year 2025 (2025-09-08 UTC)

Documentation

Showing up to 5 results
|